Year,Month,Day,Hour,Minute,Value (Times are PST for temperature in C)
2017,12,13,00,00,5.80
2017,12,13,00,01,5.80
2017,12,13,00,02,5.80
2017,12,13,00,03,5.80
2017,12,13,00,04,5.80
2017,12,13,00,05,5.80
2017,12,13,00,06,5.70
2017,12,13,00,07,5.70
2017,12,13,00,08,5.80
2017,12,13,00,09,5.80
2017,12,13,00,10,5.80
2017,12,13,00,11,5.80
2017,12,13,00,12,5.80
2017,12,13,00,13,5.80
2017,12,13,00,14,5.80
2017,12,13,00,15,5.80
2017,12,13,00,16,5.80
2017,12,13,00,17,5.80
2017,12,13,00,18,5.80
2017,12,13,00,19,5.80
2017,12,13,00,20,5.80
2017,12,13,00,21,5.80
2017,12,13,00,22,5.80
2017,12,13,00,23,5.80
2017,12,13,00,24,5.90
2017,12,13,00,25,5.90
2017,12,13,00,26,5.90
2017,12,13,00,27,5.90
2017,12,13,00,28,5.90
2017,12,13,00,29,5.80
2017,12,13,00,30,5.70
2017,12,13,00,31,5.60
2017,12,13,00,32,5.60
2017,12,13,00,33,5.60
2017,12,13,00,34,5.60
2017,12,13,00,35,5.60
2017,12,13,00,36,5.60
2017,12,13,00,37,5.60
2017,12,13,00,38,5.60
2017,12,13,00,39,5.60
2017,12,13,00,40,5.50
2017,12,13,00,41,5.50
2017,12,13,00,42,5.40
2017,12,13,00,43,5.40
2017,12,13,00,44,5.30
2017,12,13,00,45,5.30
2017,12,13,00,46,5.20
2017,12,13,00,47,5.20
2017,12,13,00,48,5.20
2017,12,13,00,49,5.20
2017,12,13,00,50,5.10
2017,12,13,00,51,5.10
2017,12,13,00,52,5.10
2017,12,13,00,53,5.10
2017,12,13,00,54,5.20
2017,12,13,00,55,5.20
2017,12,13,00,56,5.20
2017,12,13,00,57,5.20
2017,12,13,00,58,5.20
2017,12,13,00,59,5.10
2017,12,13,01,00,5.20
2017,12,13,01,01,5.20
2017,12,13,01,02,5.20
2017,12,13,01,03,5.20
2017,12,13,01,04,5.20
2017,12,13,01,05,5.10
2017,12,13,01,06,5.10
2017,12,13,01,07,5.10
2017,12,13,01,08,5.10
2017,12,13,01,09,5.20
2017,12,13,01,10,5.20
2017,12,13,01,11,5.20
2017,12,13,01,12,5.20
2017,12,13,01,13,5.20
2017,12,13,01,14,5.20
2017,12,13,01,15,5.20
2017,12,13,01,16,5.20
2017,12,13,01,17,5.20
2017,12,13,01,18,5.20
2017,12,13,01,19,5.20
2017,12,13,01,20,5.20
2017,12,13,01,21,5.20
2017,12,13,01,22,5.20
2017,12,13,01,23,5.20
2017,12,13,01,24,5.20
2017,12,13,01,25,5.10
2017,12,13,01,26,5.10
2017,12,13,01,27,5.00
2017,12,13,01,28,5.00
2017,12,13,01,29,4.90
2017,12,13,01,30,4.90
2017,12,13,01,31,4.90
2017,12,13,01,32,4.80
2017,12,13,01,33,4.80
2017,12,13,01,34,4.80
2017,12,13,01,35,4.70
2017,12,13,01,36,4.70
2017,12,13,01,37,4.70
2017,12,13,01,38,4.70
2017,12,13,01,39,4.70
2017,12,13,01,40,4.60
2017,12,13,01,41,4.60
2017,12,13,01,42,4.70
2017,12,13,01,43,4.80
2017,12,13,01,44,4.80
2017,12,13,01,45,4.80
2017,12,13,01,46,4.90
2017,12,13,01,47,4.90
2017,12,13,01,48,4.90
2017,12,13,01,49,4.90
2017,12,13,01,50,4.90
2017,12,13,01,51,4.90
2017,12,13,01,52,4.90
2017,12,13,01,53,5.00
2017,12,13,01,54,5.00
2017,12,13,01,55,5.00
2017,12,13,01,56,5.10
2017,12,13,01,57,5.10
2017,12,13,01,58,5.10
2017,12,13,01,59,5.10
2017,12,13,02,00,5.10
2017,12,13,02,01,5.10
2017,12,13,02,02,5.10
2017,12,13,02,03,5.10
2017,12,13,02,04,5.10
2017,12,13,02,05,5.10
2017,12,13,02,06,5.10
2017,12,13,02,07,5.10
2017,12,13,02,08,5.00
2017,12,13,02,09,5.00
2017,12,13,02,10,5.00
2017,12,13,02,11,5.00
2017,12,13,02,12,5.00
2017,12,13,02,13,5.00
2017,12,13,02,14,5.00
2017,12,13,02,15,5.10
2017,12,13,02,16,5.10
2017,12,13,02,17,5.00
2017,12,13,02,18,5.00
2017,12,13,02,19,4.90
2017,12,13,02,20,4.80
2017,12,13,02,21,4.70
2017,12,13,02,22,4.70
2017,12,13,02,23,4.60
2017,12,13,02,24,4.60
2017,12,13,02,25,4.60
2017,12,13,02,26,4.60
2017,12,13,02,27,4.50
2017,12,13,02,28,4.50
2017,12,13,02,29,4.50
2017,12,13,02,30,4.40
2017,12,13,02,31,4.40
2017,12,13,02,32,4.40
2017,12,13,02,33,4.40
2017,12,13,02,34,4.40
2017,12,13,02,35,4.30
2017,12,13,02,36,4.30
2017,12,13,02,37,4.30
2017,12,13,02,38,4.20
2017,12,13,02,39,4.20
2017,12,13,02,40,4.20
2017,12,13,02,41,4.20
2017,12,13,02,42,4.20
2017,12,13,02,43,4.10
2017,12,13,02,44,4.10
2017,12,13,02,45,4.10
2017,12,13,02,46,4.10
2017,12,13,02,47,4.10
2017,12,13,02,48,4.10
2017,12,13,02,49,4.10
2017,12,13,02,50,4.10
2017,12,13,02,51,4.10
2017,12,13,02,52,4.00
2017,12,13,02,53,4.00
2017,12,13,02,54,4.10
2017,12,13,02,55,4.10
2017,12,13,02,56,4.20
2017,12,13,02,57,4.20
2017,12,13,02,58,4.30
2017,12,13,02,59,4.30
2017,12,13,03,00,4.30
2017,12,13,03,01,4.40
2017,12,13,03,02,4.50
2017,12,13,03,03,4.50
2017,12,13,03,04,4.60
2017,12,13,03,05,4.70
2017,12,13,03,06,4.70
2017,12,13,03,07,4.70
2017,12,13,03,08,4.70
2017,12,13,03,09,4.80
2017,12,13,03,10,4.80
2017,12,13,03,11,4.80
2017,12,13,03,12,4.90
2017,12,13,03,13,4.90
2017,12,13,03,14,4.90
2017,12,13,03,15,4.90
2017,12,13,03,16,4.90
2017,12,13,03,17,4.90
2017,12,13,03,18,4.80
2017,12,13,03,19,4.80
2017,12,13,03,20,4.80
2017,12,13,03,21,4.60
2017,12,13,03,22,4.40
2017,12,13,03,23,4.30
2017,12,13,03,24,4.10
2017,12,13,03,25,4.00
2017,12,13,03,26,3.90
2017,12,13,03,27,4.00
2017,12,13,03,28,4.00
2017,12,13,03,29,4.10
2017,12,13,03,30,4.10
2017,12,13,03,31,4.10
2017,12,13,03,32,4.20
2017,12,13,03,33,4.30
2017,12,13,03,34,4.30
2017,12,13,03,35,4.20
2017,12,13,03,36,4.00
2017,12,13,03,37,3.80
2017,12,13,03,38,3.70
2017,12,13,03,39,3.50
2017,12,13,03,40,3.40
2017,12,13,03,41,3.30
2017,12,13,03,42,3.30
2017,12,13,03,43,3.30
2017,12,13,03,44,3.30
2017,12,13,03,45,3.30
2017,12,13,03,46,3.30
2017,12,13,03,47,3.30
2017,12,13,03,48,3.40
2017,12,13,03,49,3.40
2017,12,13,03,50,3.50
2017,12,13,03,51,3.50
2017,12,13,03,52,3.60
2017,12,13,03,53,3.60
2017,12,13,03,54,3.60
2017,12,13,03,55,3.70
2017,12,13,03,56,3.70
2017,12,13,03,57,3.70
2017,12,13,03,58,3.70
2017,12,13,03,59,3.60
2017,12,13,04,00,3.60
2017,12,13,04,01,3.60
2017,12,13,04,02,3.60
2017,12,13,04,03,3.60
2017,12,13,04,04,3.60
2017,12,13,04,05,3.60
2017,12,13,04,06,3.50
2017,12,13,04,07,3.50
2017,12,13,04,08,3.50
2017,12,13,04,09,3.50
2017,12,13,04,10,3.60
2017,12,13,04,11,3.60
2017,12,13,04,12,3.60
2017,12,13,04,13,3.70
2017,12,13,04,14,3.70
2017,12,13,04,15,3.70
2017,12,13,04,16,3.70
2017,12,13,04,17,3.70
2017,12,13,04,18,3.70
2017,12,13,04,19,3.70
2017,12,13,04,20,3.60
2017,12,13,04,21,3.40
2017,12,13,04,22,3.30
2017,12,13,04,23,3.30
2017,12,13,04,24,3.20
2017,12,13,04,25,3.30
2017,12,13,04,26,3.30
2017,12,13,04,27,3.30
2017,12,13,04,28,3.40
2017,12,13,04,29,3.60
2017,12,13,04,30,3.70
2017,12,13,04,31,3.80
2017,12,13,04,32,3.90
2017,12,13,04,33,4.00
2017,12,13,04,34,4.10
2017,12,13,04,35,4.20
2017,12,13,04,36,4.30
2017,12,13,04,37,4.40
2017,12,13,04,38,4.50
2017,12,13,04,39,4.60
2017,12,13,04,40,4.60
2017,12,13,04,41,4.60
2017,12,13,04,42,4.50
2017,12,13,04,43,4.50
2017,12,13,04,44,4.50
2017,12,13,04,45,4.40
2017,12,13,04,46,4.30
2017,12,13,04,47,4.20
2017,12,13,04,48,4.20
2017,12,13,04,49,4.20
2017,12,13,04,50,4.20
2017,12,13,04,51,4.20
2017,12,13,04,52,4.30
2017,12,13,04,53,4.30
2017,12,13,04,54,4.40
2017,12,13,04,55,4.50
2017,12,13,04,56,4.60
2017,12,13,04,57,4.70
2017,12,13,04,58,4.80
2017,12,13,04,59,4.80
2017,12,13,05,00,4.90
2017,12,13,05,01,4.90
2017,12,13,05,02,4.90
2017,12,13,05,03,4.90
2017,12,13,05,04,5.00
2017,12,13,05,05,5.00
2017,12,13,05,06,5.00
2017,12,13,05,07,5.00
2017,12,13,05,08,5.10
2017,12,13,05,09,5.10
2017,12,13,05,10,5.20
2017,12,13,05,11,5.10
2017,12,13,05,12,5.10
2017,12,13,05,13,5.00
2017,12,13,05,14,5.00
2017,12,13,05,15,4.90
2017,12,13,05,16,4.90
2017,12,13,05,17,4.80
2017,12,13,05,18,4.70
2017,12,13,05,19,4.60
2017,12,13,05,20,4.50
2017,12,13,05,21,4.40
2017,12,13,05,22,4.30
2017,12,13,05,23,4.10
2017,12,13,05,24,3.90
2017,12,13,05,25,3.70
2017,12,13,05,26,3.60
2017,12,13,05,27,3.50
2017,12,13,05,28,3.50
2017,12,13,05,29,3.50
2017,12,13,05,30,3.60
2017,12,13,05,31,3.70
2017,12,13,05,32,3.70
2017,12,13,05,33,3.70
2017,12,13,05,34,3.70
2017,12,13,05,35,3.60
2017,12,13,05,36,3.60
2017,12,13,05,37,3.60
2017,12,13,05,38,3.60
2017,12,13,05,39,3.60
2017,12,13,05,40,3.60
2017,12,13,05,41,3.70
2017,12,13,05,42,3.70
2017,12,13,05,43,3.70
2017,12,13,05,44,3.70
2017,12,13,05,45,3.80
2017,12,13,05,46,3.80
2017,12,13,05,47,4.00
2017,12,13,05,48,4.10
2017,12,13,05,49,4.20
2017,12,13,05,50,4.30
2017,12,13,05,51,4.40
2017,12,13,05,52,4.50
2017,12,13,05,53,4.60
2017,12,13,05,54,4.70
2017,12,13,05,55,4.70
2017,12,13,05,56,4.70
2017,12,13,05,57,4.70
2017,12,13,05,58,4.70
2017,12,13,05,59,4.70
2017,12,13,06,00,4.70
2017,12,13,06,01,4.70
2017,12,13,06,02,4.70
2017,12,13,06,03,4.70
2017,12,13,06,04,4.70
2017,12,13,06,05,4.70
2017,12,13,06,06,4.80
2017,12,13,06,07,4.80
2017,12,13,06,08,4.80
2017,12,13,06,09,4.80
2017,12,13,06,10,4.90
2017,12,13,06,11,4.90
2017,12,13,06,12,4.90
2017,12,13,06,13,4.90
2017,12,13,06,14,4.90
2017,12,13,06,15,4.90
2017,12,13,06,16,4.90
2017,12,13,06,17,4.90
2017,12,13,06,18,4.90
2017,12,13,06,19,5.00
2017,12,13,06,20,5.00
2017,12,13,06,21,5.10
2017,12,13,06,22,5.10
2017,12,13,06,23,5.10
2017,12,13,06,24,5.10
2017,12,13,06,25,5.10
2017,12,13,06,26,5.20
2017,12,13,06,27,5.20
2017,12,13,06,28,5.10
2017,12,13,06,29,5.10
2017,12,13,06,30,5.00
2017,12,13,06,31,4.80
2017,12,13,06,32,4.80
2017,12,13,06,33,4.70
2017,12,13,06,34,4.70
2017,12,13,06,35,4.80
2017,12,13,06,36,4.80
2017,12,13,06,37,4.80
2017,12,13,06,38,4.80
2017,12,13,06,39,4.80
2017,12,13,06,40,4.80
2017,12,13,06,41,4.70
2017,12,13,06,42,4.60
2017,12,13,06,43,4.40
2017,12,13,06,44,4.20
2017,12,13,06,45,4.00
2017,12,13,06,46,3.80
2017,12,13,06,47,3.60
2017,12,13,06,48,3.50
2017,12,13,06,49,3.40
2017,12,13,06,50,3.20
2017,12,13,06,51,3.10
2017,12,13,06,52,3.10
2017,12,13,06,53,3.00
2017,12,13,06,54,2.90
2017,12,13,06,55,2.90
2017,12,13,06,56,2.80
2017,12,13,06,57,2.80
2017,12,13,06,58,2.80
2017,12,13,06,59,2.80
2017,12,13,07,00,2.80
2017,12,13,07,01,2.80
2017,12,13,07,02,2.90
2017,12,13,07,03,3.00
2017,12,13,07,04,3.10
2017,12,13,07,05,3.20
2017,12,13,07,06,3.30
2017,12,13,07,07,3.50
2017,12,13,07,08,3.70
2017,12,13,07,09,3.80
2017,12,13,07,10,3.90
2017,12,13,07,11,4.10
2017,12,13,07,12,4.20
2017,12,13,07,13,4.20
2017,12,13,07,14,4.30
2017,12,13,07,15,4.30
2017,12,13,07,16,4.40
2017,12,13,07,17,4.40
2017,12,13,07,18,4.40
2017,12,13,07,19,4.50
2017,12,13,07,20,4.50
2017,12,13,07,21,4.50
2017,12,13,07,22,4.60
2017,12,13,07,23,4.50
2017,12,13,07,24,4.30
2017,12,13,07,25,4.10
2017,12,13,07,26,3.90
2017,12,13,07,27,3.90
2017,12,13,07,28,3.90
2017,12,13,07,29,3.90
2017,12,13,07,30,3.90
2017,12,13,07,31,3.90
2017,12,13,07,32,4.00
2017,12,13,07,33,4.10
2017,12,13,07,34,4.10
2017,12,13,07,35,4.00
2017,12,13,07,36,4.00
2017,12,13,07,37,4.00
2017,12,13,07,38,4.10
2017,12,13,07,39,4.20
2017,12,13,07,40,4.20
2017,12,13,07,41,4.30
2017,12,13,07,42,4.30
2017,12,13,07,43,4.40
2017,12,13,07,44,4.40
2017,12,13,07,45,4.50
2017,12,13,07,46,4.60
2017,12,13,07,47,4.60
2017,12,13,07,48,4.70
2017,12,13,07,49,4.70
2017,12,13,07,50,4.70
2017,12,13,07,51,4.80
2017,12,13,07,52,4.80
2017,12,13,07,53,4.80
2017,12,13,07,54,4.80
2017,12,13,07,55,4.80
2017,12,13,07,56,4.80
2017,12,13,07,57,4.80
2017,12,13,07,58,4.80
2017,12,13,07,59,4.80
2017,12,13,08,00,4.80
2017,12,13,08,01,4.90
2017,12,13,08,02,4.90
2017,12,13,08,03,4.90
2017,12,13,08,04,4.90
2017,12,13,08,05,4.90
2017,12,13,08,06,4.90
2017,12,13,08,07,4.90
2017,12,13,08,08,4.90
2017,12,13,08,09,4.90
2017,12,13,08,10,4.90
2017,12,13,08,11,4.90
2017,12,13,08,12,4.90
2017,12,13,08,13,4.90
2017,12,13,08,14,4.90
2017,12,13,08,15,4.90
2017,12,13,08,16,4.90
2017,12,13,08,17,4.90
2017,12,13,08,18,4.90
2017,12,13,08,19,4.90
2017,12,13,08,20,4.90
2017,12,13,08,21,4.90
2017,12,13,08,22,4.90
2017,12,13,08,23,5.00
2017,12,13,08,24,5.00
2017,12,13,08,25,5.00
2017,12,13,08,26,5.10
2017,12,13,08,27,5.10
2017,12,13,08,28,5.00
2017,12,13,08,29,5.00
2017,12,13,08,30,4.90
2017,12,13,08,31,4.90
2017,12,13,08,32,4.80
2017,12,13,08,33,4.80
2017,12,13,08,34,4.80
2017,12,13,08,35,4.80
2017,12,13,08,36,4.80
2017,12,13,08,37,4.80
2017,12,13,08,38,4.80
2017,12,13,08,39,4.80
2017,12,13,08,40,4.70
2017,12,13,08,41,4.70
2017,12,13,08,42,4.70
2017,12,13,08,43,4.70
2017,12,13,08,44,4.80
2017,12,13,08,45,4.80
2017,12,13,08,46,4.90
2017,12,13,08,47,5.00
2017,12,13,08,48,5.10
2017,12,13,08,49,5.20
2017,12,13,08,50,5.30
2017,12,13,08,51,5.40
2017,12,13,08,52,5.50
2017,12,13,08,53,5.60
2017,12,13,08,54,5.70
2017,12,13,08,55,5.70
2017,12,13,08,56,5.80
2017,12,13,08,57,5.80
2017,12,13,08,58,5.90
2017,12,13,08,59,5.90
2017,12,13,09,00,6.00
2017,12,13,09,01,6.00
2017,12,13,09,02,6.00
2017,12,13,09,03,6.10
2017,12,13,09,04,6.10
2017,12,13,09,05,6.10
2017,12,13,09,06,6.10
2017,12,13,09,07,6.10
2017,12,13,09,08,6.10
2017,12,13,09,09,6.10
2017,12,13,09,10,6.20
2017,12,13,09,11,6.20
2017,12,13,09,12,6.20
2017,12,13,09,13,6.20
2017,12,13,09,14,6.20
2017,12,13,09,15,6.20
2017,12,13,09,16,6.20
2017,12,13,09,17,6.20
2017,12,13,09,18,6.30
2017,12,13,09,19,6.30
2017,12,13,09,20,6.30
2017,12,13,09,21,6.40
2017,12,13,09,22,6.40
2017,12,13,09,23,6.40
2017,12,13,09,24,6.40
2017,12,13,09,25,6.40
2017,12,13,09,26,6.40
2017,12,13,09,27,6.40
2017,12,13,09,28,6.40
2017,12,13,09,29,6.40
2017,12,13,09,30,6.40
2017,12,13,09,31,6.40
2017,12,13,09,32,6.40
2017,12,13,09,33,6.40
2017,12,13,09,34,6.40
2017,12,13,09,35,6.40
2017,12,13,09,36,6.40
2017,12,13,09,37,6.40
2017,12,13,09,38,6.40
2017,12,13,09,39,6.40
2017,12,13,09,40,6.40
2017,12,13,09,41,6.50
2017,12,13,09,42,6.50
2017,12,13,09,43,6.50
2017,12,13,09,44,6.50
2017,12,13,09,45,6.40
2017,12,13,09,46,6.40
2017,12,13,09,47,6.40
2017,12,13,09,48,6.30
2017,12,13,09,49,6.30
2017,12,13,09,50,6.30
2017,12,13,09,51,6.20
2017,12,13,09,52,6.20
2017,12,13,09,53,6.20
2017,12,13,09,54,6.20
2017,12,13,09,55,6.20
2017,12,13,09,56,6.20
2017,12,13,09,57,6.20
2017,12,13,09,58,6.30
2017,12,13,09,59,6.30
2017,12,13,10,00,6.30
2017,12,13,10,01,6.40
2017,12,13,10,02,6.40
2017,12,13,10,03,6.50
2017,12,13,10,04,6.50
2017,12,13,10,05,6.60
2017,12,13,10,06,6.60
2017,12,13,10,07,6.70
2017,12,13,10,08,6.70
2017,12,13,10,09,6.70
2017,12,13,10,10,6.70
2017,12,13,10,11,6.80
2017,12,13,10,12,6.80
2017,12,13,10,13,6.80
2017,12,13,10,14,6.80
2017,12,13,10,15,6.90
2017,12,13,10,16,6.90
2017,12,13,10,17,7.00
2017,12,13,10,18,7.00
2017,12,13,10,19,7.10
2017,12,13,10,20,7.10
2017,12,13,10,21,7.20
2017,12,13,10,22,7.20
2017,12,13,10,23,7.30
2017,12,13,10,24,7.30
2017,12,13,10,25,7.40
2017,12,13,10,26,7.40
2017,12,13,10,27,7.50
2017,12,13,10,28,7.50
2017,12,13,10,29,7.60
2017,12,13,10,30,7.60
2017,12,13,10,31,7.70
2017,12,13,10,32,7.70
2017,12,13,10,33,7.80
2017,12,13,10,34,7.80
2017,12,13,10,35,7.80
2017,12,13,10,36,7.90
2017,12,13,10,37,7.90
2017,12,13,10,38,8.00
2017,12,13,10,39,8.00
2017,12,13,10,40,8.10
2017,12,13,10,41,8.10
2017,12,13,10,42,8.20
2017,12,13,10,43,8.20
2017,12,13,10,44,8.20
2017,12,13,10,45,8.30
2017,12,13,10,46,8.30
2017,12,13,10,47,8.30
2017,12,13,10,48,8.30
2017,12,13,10,49,8.20
2017,12,13,10,50,8.20
2017,12,13,10,51,8.20
2017,12,13,10,52,8.20
2017,12,13,10,53,8.30
2017,12,13,10,54,8.30
2017,12,13,10,55,8.40
2017,12,13,10,56,8.40
2017,12,13,10,57,8.50
2017,12,13,10,58,8.50
2017,12,13,10,59,8.50
2017,12,13,11,00,8.50
2017,12,13,11,01,8.60
2017,12,13,11,02,8.60
2017,12,13,11,03,8.60
2017,12,13,11,04,8.60
2017,12,13,11,05,8.60
2017,12,13,11,06,8.60
2017,12,13,11,07,8.60
2017,12,13,11,08,8.70
2017,12,13,11,09,8.70
2017,12,13,11,10,8.70
2017,12,13,11,11,8.80
2017,12,13,11,12,8.80
2017,12,13,11,13,8.80
2017,12,13,11,14,8.80
2017,12,13,11,15,8.80
2017,12,13,11,16,8.80
2017,12,13,11,17,8.80
2017,12,13,11,18,8.80
2017,12,13,11,19,8.80
2017,12,13,11,20,8.80
2017,12,13,11,21,8.80
2017,12,13,11,22,8.80
2017,12,13,11,23,8.80
2017,12,13,11,24,8.80
2017,12,13,11,25,8.80
2017,12,13,11,26,8.80
2017,12,13,11,27,8.80
2017,12,13,11,28,8.90
2017,12,13,11,29,8.90
2017,12,13,11,30,8.90
2017,12,13,11,31,9.00
2017,12,13,11,32,9.00
2017,12,13,11,33,9.10
2017,12,13,11,34,9.10
2017,12,13,11,35,9.20
2017,12,13,11,36,9.20
2017,12,13,11,37,9.30
2017,12,13,11,38,9.40
2017,12,13,11,39,9.40
2017,12,13,11,40,9.50
2017,12,13,11,41,9.60
2017,12,13,11,42,9.70
2017,12,13,11,43,9.80
2017,12,13,11,44,9.80
2017,12,13,11,45,9.90
2017,12,13,11,46,9.90
2017,12,13,11,47,10.00
2017,12,13,11,48,10.10
2017,12,13,11,49,10.10
2017,12,13,11,50,10.20
2017,12,13,11,51,10.30
2017,12,13,11,52,10.30
2017,12,13,11,53,10.40
2017,12,13,11,54,10.40
2017,12,13,11,55,10.50
2017,12,13,11,56,10.50
2017,12,13,11,57,10.50
2017,12,13,11,58,10.50
2017,12,13,11,59,10.50
2017,12,13,12,00,10.50
2017,12,13,12,01,10.50
2017,12,13,12,02,10.50
2017,12,13,12,03,10.50
2017,12,13,12,04,10.50
2017,12,13,12,05,10.50
2017,12,13,12,06,10.60
2017,12,13,12,07,10.60
2017,12,13,12,08,10.60
2017,12,13,12,09,10.70
2017,12,13,12,10,10.70
2017,12,13,12,11,10.80
2017,12,13,12,12,10.80
2017,12,13,12,13,10.80
2017,12,13,12,14,10.90
2017,12,13,12,15,10.90
2017,12,13,12,16,11.00
2017,12,13,12,17,11.10
2017,12,13,12,18,11.10
2017,12,13,12,19,11.20
2017,12,13,12,20,11.30
2017,12,13,12,21,11.30
2017,12,13,12,22,11.30
2017,12,13,12,23,11.40
2017,12,13,12,24,11.40
2017,12,13,12,25,11.50
2017,12,13,12,26,11.50
2017,12,13,12,27,11.60
2017,12,13,12,28,11.70
2017,12,13,12,29,11.80
2017,12,13,12,30,11.80
2017,12,13,12,31,11.90
2017,12,13,12,32,12.00
2017,12,13,12,33,12.00
2017,12,13,12,34,12.00
2017,12,13,12,35,12.10
2017,12,13,12,36,12.10
2017,12,13,12,37,12.10
2017,12,13,12,38,12.10
2017,12,13,12,39,12.20
2017,12,13,12,40,12.20
2017,12,13,12,41,12.20
2017,12,13,12,42,12.20
2017,12,13,12,43,12.30
2017,12,13,12,44,12.30
2017,12,13,12,45,12.30
2017,12,13,12,46,12.30
2017,12,13,12,47,12.30
2017,12,13,12,48,12.30
2017,12,13,12,49,12.30
2017,12,13,12,50,12.30
2017,12,13,12,51,12.30
2017,12,13,12,52,12.20
2017,12,13,12,53,12.20
2017,12,13,12,54,12.20
2017,12,13,12,55,12.10
2017,12,13,12,56,12.10
2017,12,13,12,57,12.10
2017,12,13,12,58,12.00
2017,12,13,12,59,12.00
2017,12,13,13,00,11.90
2017,12,13,13,01,11.90
2017,12,13,13,02,11.80
2017,12,13,13,03,11.80
2017,12,13,13,04,11.80
2017,12,13,13,05,11.70
2017,12,13,13,06,11.70
2017,12,13,13,07,11.60
2017,12,13,13,08,11.60
2017,12,13,13,09,11.60
2017,12,13,13,10,11.50
2017,12,13,13,11,11.50
2017,12,13,13,12,11.50
2017,12,13,13,13,11.50
2017,12,13,13,14,11.40
2017,12,13,13,15,11.40
2017,12,13,13,16,11.40
2017,12,13,13,17,11.40
2017,12,13,13,18,11.40
2017,12,13,13,19,11.40
2017,12,13,13,20,11.40
2017,12,13,13,21,11.40
2017,12,13,13,22,11.40
2017,12,13,13,23,11.40
2017,12,13,13,24,11.40
2017,12,13,13,25,11.40
2017,12,13,13,26,11.40
2017,12,13,13,27,11.40
2017,12,13,13,28,11.40
2017,12,13,13,29,11.40
2017,12,13,13,30,11.40
2017,12,13,13,31,11.50
2017,12,13,13,32,11.50
2017,12,13,13,33,11.60
2017,12,13,13,34,11.60
2017,12,13,13,35,11.60
2017,12,13,13,36,11.70
2017,12,13,13,37,11.80
2017,12,13,13,38,11.80
2017,12,13,13,39,11.80
2017,12,13,13,40,11.80
2017,12,13,13,41,11.80
2017,12,13,13,42,11.80
2017,12,13,13,43,11.80
2017,12,13,13,44,11.80
2017,12,13,13,45,11.80
2017,12,13,13,46,11.80
2017,12,13,13,47,11.80
2017,12,13,13,48,11.80
2017,12,13,13,49,11.80
2017,12,13,13,50,11.80
2017,12,13,13,51,11.80
2017,12,13,13,52,11.80
2017,12,13,13,53,11.80
2017,12,13,13,54,11.80
2017,12,13,13,55,11.80
2017,12,13,13,56,11.80
2017,12,13,13,57,11.80
2017,12,13,13,58,11.80
2017,12,13,13,59,11.90
2017,12,13,14,00,11.90
2017,12,13,14,01,12.00
2017,12,13,14,02,12.00
2017,12,13,14,03,12.00
2017,12,13,14,04,12.00
2017,12,13,14,05,12.00
2017,12,13,14,06,12.10
2017,12,13,14,07,12.10
2017,12,13,14,08,12.10
2017,12,13,14,09,12.10
2017,12,13,14,10,12.10
2017,12,13,14,11,12.10
2017,12,13,14,12,12.10
2017,12,13,14,13,12.00
2017,12,13,14,14,11.90
2017,12,13,14,15,11.90
2017,12,13,14,16,11.90
2017,12,13,14,17,11.80
2017,12,13,14,18,11.80
2017,12,13,14,19,11.80
2017,12,13,14,20,11.80
2017,12,13,14,21,11.80
2017,12,13,14,22,11.80
2017,12,13,14,23,11.80
2017,12,13,14,24,11.80
2017,12,13,14,25,11.80
2017,12,13,14,26,11.80
2017,12,13,14,27,11.80
2017,12,13,14,28,11.80
2017,12,13,14,29,11.90
2017,12,13,14,30,11.90
2017,12,13,14,31,11.90
2017,12,13,14,32,12.00
2017,12,13,14,33,12.00
2017,12,13,14,34,12.00
2017,12,13,14,35,11.90
2017,12,13,14,36,11.90
2017,12,13,14,37,11.80
2017,12,13,14,38,11.80
2017,12,13,14,39,11.80
2017,12,13,14,40,11.80
2017,12,13,14,41,11.70
2017,12,13,14,42,11.50
2017,12,13,14,43,11.30
2017,12,13,14,44,11.20
2017,12,13,14,45,11.10
2017,12,13,14,46,10.90
2017,12,13,14,47,10.90
2017,12,13,14,48,10.80
2017,12,13,14,49,10.80
2017,12,13,14,50,10.70
2017,12,13,14,51,10.70
2017,12,13,14,52,10.70
2017,12,13,14,53,10.70
2017,12,13,14,54,10.70
2017,12,13,14,55,10.70
2017,12,13,14,56,10.70
2017,12,13,14,57,10.60
2017,12,13,14,58,10.60
2017,12,13,14,59,10.50
2017,12,13,15,00,10.50
2017,12,13,15,01,10.40
2017,12,13,15,02,10.50
2017,12,13,15,03,10.50
2017,12,13,15,04,10.50
2017,12,13,15,05,10.60
2017,12,13,15,06,10.60
2017,12,13,15,07,10.70
2017,12,13,15,08,10.80
2017,12,13,15,09,10.90
2017,12,13,15,10,11.00
2017,12,13,15,11,11.10
2017,12,13,15,12,11.10
2017,12,13,15,13,11.10
2017,12,13,15,14,11.20
2017,12,13,15,15,11.20
2017,12,13,15,16,11.30
2017,12,13,15,17,11.30
2017,12,13,15,18,11.30
2017,12,13,15,19,11.30
2017,12,13,15,20,11.30
2017,12,13,15,21,11.30
2017,12,13,15,22,11.20
2017,12,13,15,23,11.20
2017,12,13,15,24,11.20
2017,12,13,15,25,11.10
2017,12,13,15,26,11.10
2017,12,13,15,27,11.10
2017,12,13,15,28,11.10
2017,12,13,15,29,11.10
2017,12,13,15,30,11.20
2017,12,13,15,31,11.20
2017,12,13,15,32,11.20
2017,12,13,15,33,11.10
2017,12,13,15,34,11.10
2017,12,13,15,35,11.00
2017,12,13,15,36,11.00
2017,12,13,15,37,10.90
2017,12,13,15,38,10.90
2017,12,13,15,39,10.80
2017,12,13,15,40,10.80
2017,12,13,15,41,10.70
2017,12,13,15,42,10.60
2017,12,13,15,43,10.60
2017,12,13,15,44,10.60
2017,12,13,15,45,10.50
2017,12,13,15,46,10.50
2017,12,13,15,47,10.50
2017,12,13,15,48,10.50
2017,12,13,15,49,10.40
2017,12,13,15,50,10.40
2017,12,13,15,51,10.40
2017,12,13,15,52,10.40
2017,12,13,15,53,10.40
2017,12,13,15,54,10.30
2017,12,13,15,55,10.30
2017,12,13,15,56,10.30
2017,12,13,15,57,10.20
2017,12,13,15,58,10.20
2017,12,13,15,59,10.10
2017,12,13,16,00,10.10
2017,12,13,16,01,10.00
2017,12,13,16,02,9.90
2017,12,13,16,03,9.80
2017,12,13,16,04,9.80
2017,12,13,16,05,9.70
2017,12,13,16,06,9.70
2017,12,13,16,07,9.60
2017,12,13,16,08,9.60
2017,12,13,16,09,9.50
2017,12,13,16,10,9.50
2017,12,13,16,11,9.40
2017,12,13,16,12,9.30
2017,12,13,16,13,9.30
2017,12,13,16,14,9.20
2017,12,13,16,15,9.20
2017,12,13,16,16,9.20
2017,12,13,16,17,9.20
2017,12,13,16,18,9.10
2017,12,13,16,19,9.10
2017,12,13,16,20,9.10
2017,12,13,16,21,9.00
2017,12,13,16,22,9.00
2017,12,13,16,23,8.90
2017,12,13,16,24,8.80
2017,12,13,16,25,8.70
2017,12,13,16,26,8.60
2017,12,13,16,27,8.60
2017,12,13,16,28,8.50
2017,12,13,16,29,8.40
2017,12,13,16,30,8.40
2017,12,13,16,31,8.40
2017,12,13,16,32,8.40
2017,12,13,16,33,8.40
2017,12,13,16,34,8.40
2017,12,13,16,35,8.50
2017,12,13,16,36,8.50
2017,12,13,16,37,8.50
2017,12,13,16,38,8.50
2017,12,13,16,39,8.50
2017,12,13,16,40,8.40
2017,12,13,16,41,8.40
2017,12,13,16,42,8.40
2017,12,13,16,43,8.40
2017,12,13,16,44,8.40
2017,12,13,16,45,8.30
2017,12,13,16,46,8.30
2017,12,13,16,47,8.30
2017,12,13,16,48,8.20
2017,12,13,16,49,8.20
2017,12,13,16,50,8.20
2017,12,13,16,51,8.10
2017,12,13,16,52,8.10
2017,12,13,16,53,8.10
2017,12,13,16,54,8.10
2017,12,13,16,55,8.10
2017,12,13,16,56,8.00
2017,12,13,16,57,8.00
2017,12,13,16,58,8.00
2017,12,13,16,59,8.00
2017,12,13,17,00,8.00
2017,12,13,17,01,8.00
2017,12,13,17,02,8.10
2017,12,13,17,03,8.10
2017,12,13,17,04,8.10
2017,12,13,17,05,8.10
2017,12,13,17,06,8.10
2017,12,13,17,07,8.10
2017,12,13,17,08,8.00
2017,12,13,17,09,8.00
2017,12,13,17,10,7.90
2017,12,13,17,11,7.90
2017,12,13,17,12,7.90
2017,12,13,17,13,7.80
2017,12,13,17,14,7.80
2017,12,13,17,15,7.70
2017,12,13,17,16,7.70
2017,12,13,17,17,7.70
2017,12,13,17,18,7.60
2017,12,13,17,19,7.60
2017,12,13,17,20,7.50
2017,12,13,17,21,7.50
2017,12,13,17,22,7.40
2017,12,13,17,23,7.40
2017,12,13,17,24,7.40
2017,12,13,17,25,7.40
2017,12,13,17,26,7.40
2017,12,13,17,27,7.40
2017,12,13,17,28,7.40
2017,12,13,17,29,7.40
2017,12,13,17,30,7.30
2017,12,13,17,31,7.30
2017,12,13,17,32,7.30
2017,12,13,17,33,7.30
2017,12,13,17,34,7.30
2017,12,13,17,35,7.30
2017,12,13,17,36,7.20
2017,12,13,17,37,7.20
2017,12,13,17,38,7.20
2017,12,13,17,39,7.20
2017,12,13,17,40,7.20
2017,12,13,17,41,7.20
2017,12,13,17,42,7.20
2017,12,13,17,43,7.20
2017,12,13,17,44,7.20
2017,12,13,17,45,7.20
2017,12,13,17,46,7.20
2017,12,13,17,47,7.30
2017,12,13,17,48,7.30
2017,12,13,17,49,7.30
2017,12,13,17,50,7.30
2017,12,13,17,51,7.30
2017,12,13,17,52,7.20
2017,12,13,17,53,7.20
2017,12,13,17,54,7.20
2017,12,13,17,55,7.20